When you browse on this site, cookies collect data to enhance your experience and personalize the content and advertising you see.
Visit our Privacy Policy to learn more. By continuing to use the site, you agree to this use of cookies and data.
  • In Schweiz
  • Länderverzeichnis
  • Für 7 Tage
  • Wassertemperatur
  • Wetterkarte
  • Widgets
  • user-avatar
    Anmelden

    Stündliche Wetter Hrodna

    Heute, 26 Februar, Mittwoch

    Zeit Temperatur Niederschläge Wind Luftdruck Luftfeuchtigkeit
    00:00 +3°C° 0.5 mm 5 m/S 734 mmHg 93%
    01:00 +4°C° 0.5 mm 4 m/S 734 mmHg 93%
    02:00 +4°C° 0 mm 4 m/S 734 mmHg 93%
    03:00 +3°C° 0 mm 3 m/S 733 mmHg 93%
    04:00 +2°C° 0 mm 3 m/S 733 mmHg 93%
    05:00 +2°C° 0 mm 3 m/S 733 mmHg 93%
    06:00 +1°C° 0 mm 3 m/S 733 mmHg 92%
    07:00 +1°C° 0 mm 3 m/S 733 mmHg 92%
    08:00 +1°C° 0 mm 3 m/S 733 mmHg 91%
    09:00 +2°C° 0 mm 3 m/S 733 mmHg 84%
    10:00 +3°C° 0 mm 3 m/S 733 mmHg 77%
    11:00 +5°C° 0 mm 4 m/S 733 mmHg 69%
    12:00 +5°C° 0 mm 4 m/S 733 mmHg 65%
    13:00 +6°C° 0 mm 4 m/S 733 mmHg 61%
    14:00 +7°C° 0 mm 4 m/S 733 mmHg 56%
    15:00 +7°C° 0 mm 3 m/S 733 mmHg 61%
    16:00 +7°C° 0 mm 3 m/S 732 mmHg 65%
    17:00 +7°C° 0 mm 2 m/S 732 mmHg 70%
    18:00 +6°C° 0.2 mm 2 m/S 732 mmHg 75%
    19:00 +5°C° 0.2 mm 2 m/S 733 mmHg 80%
    20:00 +5°C° 0.2 mm 2 m/S 733 mmHg 86%
    21:00 +4°C° 0.2 mm 2 m/S 733 mmHg 87%
    22:00 +5°C° 0.2 mm 1 m/S 733 mmHg 88%
    23:00 +5°C° 0.2 mm 1 m/S 733 mmHg 89%

    Morgen, 27 Februar, Donnerstag

    Zeit Temperatur Niederschläge Wind Luftdruck Luftfeuchtigkeit
    00:00 +4°C° 0 mm 1 m/S 733 mmHg 89%
    01:00 +3°C° 0 mm 2 m/S 733 mmHg 89%
    02:00 +3°C° 0 mm 2 m/S 733 mmHg 89%
    03:00 +2°C° 0 mm 2 m/S 734 mmHg 91%
    04:00 +2°C° 0 mm 2 m/S 734 mmHg 92%
    05:00 +1°C° 0 mm 2 m/S 734 mmHg 94%
    06:00 0°C° 0.1 mm 3 m/S 734 mmHg 92%
    07:00 0°C° 0.1 mm 3 m/S 734 mmHg 91%
    08:00 0°C° 0.1 mm 3 m/S 735 mmHg 89%
    09:00 0°C° 0 mm 4 m/S 735 mmHg 83%
    10:00 0°C° 0 mm 4 m/S 735 mmHg 77%
    11:00 +1°C° 0 mm 5 m/S 736 mmHg 71%
    12:00 +1°C° 0.1 mm 5 m/S 736 mmHg 69%
    13:00 +1°C° 0.1 mm 5 m/S 736 mmHg 67%
    14:00 +1°C° 0.1 mm 5 m/S 737 mmHg 64%
    15:00 +1°C° 0.1 mm 5 m/S 737 mmHg 64%
    16:00 +1°C° 0.1 mm 6 m/S 737 mmHg 64%
    17:00 -1°C° 0.1 mm 6 m/S 737 mmHg 64%
    18:00 -1°C° 0 mm 5 m/S 737 mmHg 68%
    19:00 -1°C° 0 mm 4 m/S 738 mmHg 72%
    20:00 -1°C° 0 mm 3 m/S 738 mmHg 76%
    21:00 -1°C° 0 mm 3 m/S 738 mmHg 77%
    22:00 -1°C° 0 mm 3 m/S 738 mmHg 78%
    23:00 -2°C° 0 mm 3 m/S 738 mmHg 79%

    übermorgen, 28 Februar, Freitag

    Zeit Temperatur Niederschläge Wind Luftdruck Luftfeuchtigkeit
    00:00 -2°C° 0 mm 3 m/S 738 mmHg 80%
    01:00 -2°C° 0 mm 3 m/S 738 mmHg 80%
    02:00 -2°C° 0 mm 3 m/S 738 mmHg 80%
    03:00 -2°C° 0 mm 2 m/S 738 mmHg 82%
    04:00 -2°C° 0 mm 2 m/S 738 mmHg 83%
    05:00 -2°C° 0 mm 2 m/S 738 mmHg 84%
    06:00 -2°C° 0 mm 2 m/S 738 mmHg 84%
    07:00 -2°C° 0 mm 2 m/S 738 mmHg 83%
    08:00 0°C° 0 mm 1 m/S 738 mmHg 83%
    09:00 +1°C° 0 mm 1 m/S 739 mmHg 77%
    10:00 +2°C° 0 mm 1 m/S 739 mmHg 72%
    11:00 +2°C° 0 mm 2 m/S 739 mmHg 66%
    12:00 +3°C° 0 mm 2 m/S 740 mmHg 63%
    13:00 +3°C° 0 mm 2 m/S 740 mmHg 60%
    14:00 +3°C° 0 mm 3 m/S 740 mmHg 58%
    15:00 +3°C° 0 mm 2 m/S 741 mmHg 61%
    16:00 +3°C° 0 mm 2 m/S 741 mmHg 65%
    17:00 +3°C° 0 mm 2 m/S 741 mmHg 69%
    18:00 +2°C° 0 mm 2 m/S 742 mmHg 73%
    19:00 +1°C° 0 mm 2 m/S 742 mmHg 77%
    20:00 +1°C° 0 mm 2 m/S 742 mmHg 81%
    21:00 0°C° 0 mm 3 m/S 743 mmHg 83%
    22:00 0°C° 0 mm 3 m/S 743 mmHg 85%
    23:00 -2°C° 0 mm 4 m/S 743 mmHg 87%

    29 Februar, Samstag

    Zeit Temperatur Niederschläge Wind Luftdruck Luftfeuchtigkeit
    00:00 -2°C° 0 mm 4 m/S 743 mmHg 87%
    01:00 -2°C° 0 mm 4 m/S 744 mmHg 87%
    02:00 -2°C° 0 mm 5 m/S 744 mmHg 87%
    03:00 -2°C° 0 mm 4 m/S 744 mmHg 88%
    04:00 -3°C° 0 mm 4 m/S 744 mmHg 88%
    05:00 -3°C° 0 mm 4 m/S 745 mmHg 88%
    06:00 -2°C° 0 mm 3 m/S 745 mmHg 88%
    07:00 -2°C° 0 mm 3 m/S 746 mmHg 88%
    08:00 -2°C° 0 mm 3 m/S 746 mmHg 88%
    09:00 -1°C° 0 mm 3 m/S 746 mmHg 82%
    10:00 0°C° 0 mm 3 m/S 747 mmHg 76%
    11:00 +1°C° 0 mm 3 m/S 747 mmHg 69%
    12:00 +1°C° 0 mm 3 m/S 747 mmHg 68%
    13:00 +2°C° 0 mm 3 m/S 747 mmHg 67%
    14:00 +2°C° 0 mm 3 m/S 747 mmHg 65%
    15:00 +2°C° 0 mm 3 m/S 747 mmHg 66%
    16:00 +3°C° 0 mm 2 m/S 747 mmHg 68%
    17:00 +3°C° 0 mm 2 m/S 747 mmHg 69%
    18:00 +2°C° 0 mm 2 m/S 747 mmHg 73%
    19:00 0°C° 0 mm 3 m/S 747 mmHg 78%
    20:00 -1°C° 0 mm 3 m/S 747 mmHg 83%
    21:00 -1°C° 0 mm 3 m/S 747 mmHg 82%
    22:00 -2°C° 0 mm 4 m/S 747 mmHg 81%
    23:00 -2°C° 0 mm 4 m/S 747 mmHg 80%

    1 März, Sonntag

    Zeit Temperatur Niederschläge Wind Luftdruck Luftfeuchtigkeit
    00:00 -2°C° 0 mm 5 m/S 746 mmHg 77%
    01:00 -2°C° 0 mm 6 m/S 746 mmHg 74%
    02:00 -2°C° 0 mm 6 m/S 745 mmHg 71%
    03:00 -2°C° 0 mm 7 m/S 745 mmHg 72%
    04:00 -2°C° 0 mm 7 m/S 744 mmHg 73%
    05:00 -2°C° 0 mm 7 m/S 744 mmHg 75%
    06:00 -1°C° 0 mm 7 m/S 743 mmHg 73%
    07:00 -1°C° 0 mm 7 m/S 743 mmHg 72%
    08:00 -1°C° 0 mm 7 m/S 743 mmHg 71%
    09:00 0°C° 0 mm 7 m/S 743 mmHg 69%
    10:00 0°C° 0 mm 7 m/S 743 mmHg 66%
    11:00 +2°C° 0 mm 7 m/S 742 mmHg 64%
    12:00 +2°C° 0.2 mm 7 m/S 742 mmHg 70%
    13:00 +2°C° 0.2 mm 6 m/S 742 mmHg 75%
    14:00 +1°C° 0.2 mm 6 m/S 742 mmHg 81%
    15:00 +1°C° 0.9 mm 5 m/S 742 mmHg 86%
    16:00 +1°C° 0.9 mm 4 m/S 742 mmHg 91%
    17:00 0°C° 0.9 mm 4 m/S 742 mmHg 97%
    18:00 +2°C° 0.3 mm 3 m/S 742 mmHg 97%
    19:00 +2°C° 0.3 mm 3 m/S 742 mmHg 97%
    20:00 +2°C° 0.3 mm 3 m/S 742 mmHg 97%
    21:00 +2°C° 0 mm 3 m/S 743 mmHg 96%
    22:00 +2°C° 0 mm 3 m/S 743 mmHg 96%
    23:00 +1°C° 0 mm 3 m/S 743 mmHg 96%

    2 März, Montag

    Zeit Temperatur Niederschläge Wind Luftdruck Luftfeuchtigkeit
    00:00 +1°C° 0 mm 3 m/S 743 mmHg 96%
    01:00 +1°C° 0 mm 3 m/S 743 mmHg 95%
    02:00 +2°C° 0 mm 2 m/S 743 mmHg 95%
    03:00 +1°C° 0 mm 3 m/S 742 mmHg 95%
    04:00 +1°C° 0 mm 3 m/S 742 mmHg 94%
    05:00 +1°C° 0 mm 3 m/S 742 mmHg 94%
    06:00 +1°C° 0 mm 3 m/S 742 mmHg 93%
    07:00 +2°C° 0 mm 3 m/S 743 mmHg 91%
    08:00 +2°C° 0 mm 3 m/S 743 mmHg 90%
    09:00 +3°C° 0 mm 3 m/S 743 mmHg 85%
    10:00 +4°C° 0 mm 4 m/S 743 mmHg 79%
    11:00 +5°C° 0 mm 4 m/S 743 mmHg 74%
    12:00 +6°C° 0 mm 4 m/S 743 mmHg 70%
    13:00 +7°C° 0 mm 4 m/S 743 mmHg 66%
    14:00 +7°C° 0 mm 4 m/S 743 mmHg 62%
    15:00 +8°C° 0 mm 3 m/S 743 mmHg 65%
    16:00 +8°C° 0 mm 3 m/S 743 mmHg 67%
    17:00 +7°C° 0 mm 2 m/S 743 mmHg 69%
    18:00 +7°C° 0 mm 2 m/S 743 mmHg 73%
    19:00 +5°C° 0 mm 3 m/S 743 mmHg 76%
    20:00 +4°C° 0 mm 3 m/S 743 mmHg 80%
    21:00 +3°C° 0 mm 3 m/S 743 mmHg 81%
    22:00 +3°C° 0 mm 3 m/S 744 mmHg 83%
    23:00 +3°C° 0 mm 3 m/S 744 mmHg 85%
    Mehr zeigen